Tracking 30995 objects as of 7-Jul-2025
HD Live streaming from Space Station
objects crossing your sky now

COSMOS 839 DEB

Track COSMOS 839 DEB now!
10-day predictions


NORAD ID: 10450
Int'l Code: 1976-067AB
Perigee: 893.5 km
Apogee: 2,076.3 km
Inclination: 65.7 °
Period: 115.5 minutes
Semi major axis: 7855 km
RCS: 0.1765 m2 (medium)
Launch date: July 8, 1976
Source: Commonwealth of Independent States (former USSR) (CIS)
Launch site: PLESETSK MISSILE AND SPACE COMPLEX (PKMTR)

Note: This is SATELLITE DEBRIS
Your satellite tracking list
Your tracking list is empty




NASA's NSSDC Master Catalog

Two Line Element Set (TLE):
1 10450U 76067AB  25187.43139997 -.00000024  00000-0  83983-4 0  9996
2 10450  65.7416 202.9245 0752844 184.6250 174.7508 12.46841095229523
Source of the keplerian elements: AFSPC